Weather History for Grove, OK

Change the Weather History Date:

Wednesday, April 9, 2014

  Actual Average (KSLG) Record (KSLG)
Temperature  
Mean Temperature 54 °F -  
Max Temperature 77 °F 64 °F 86 °F (2011)
Min Temperature 32 °F 45 °F 30 °F (2003)
Degree Days  
Heating Degree Days 10    
Growing Degree Days 4 (Base 50)    
Moisture  
Dew Point 34 °F    
Average Humidity 54    
Maximum Humidity 100    
Minimum Humidity 20    
Precipitation  
Precipitation 0.00 in - - ()
Sea Level Pressure  
Sea Level Pressure 30.08 in    
Wind  
Wind Speed 4 mph (SSW)    
Max Wind Speed 17 mph    
Max Gust Speed 25 mph    
Visibility 10 miles    
Events      
Averages and records for this station are not official NWS values.
T = Trace of Precipitation, MM = Missing Value Source: NWS Daily Summary

Daily Weather History Graph

Daily Weather History Graph

Search for Another Location

Airport:

Trip Planner

Search our weather history database for the weather conditions in past years. The results will help you decide how hot, cold, wet, or windy it might be!

Date:

Astronomy

Apr. 09, 2014 Rise Set
Actual Time 6:53 AM CDT 7:48 PM CDT
Civil Twilight 6:27 AM CDT 8:14 PM CDT
Nautical Twilight 5:55 AM CDT 8:45 PM CDT
Astronomical Twilight 5:23 AM CDT 9:18 PM CDT
Moon 2:45 PM CDT (4/9) 3:34 AM CDT (4/9)
Length of Visible Light 13h 47m
Length of Day
12h 54m
Waxing Gibbous, 72% of the Moon is Illuminated
Apr 9
Waxing Gibbous
Apr 15
Full
Apr 22
Last Quarter
Apr 29
New
May 6
First Quarter

Hourly Weather History & Observations

Time (CDT) Temp. Dew Point Humidity Pressure Visibility Wind Dir Wind Speed Gust Speed Precip Events Conditions
12:35 AM 41.0 °F 33.8 °F 76% 30.14 in 10.0 mi Calm Calm - N/A   Clear
12:55 AM 41.0 °F 33.8 °F 76% 30.14 in 10.0 mi Calm Calm - N/A   Clear
1:15 AM 39.2 °F 33.8 °F 81% 30.14 in 10.0 mi Calm Calm - N/A   Clear
1:35 AM 37.4 °F 33.8 °F 87% 30.14 in 10.0 mi Calm Calm - N/A   Clear
1:55 AM 37.4 °F 33.8 °F 87% 30.14 in 10.0 mi Calm Calm - N/A   Clear
2:15 AM 37.4 °F 33.8 °F 87% 30.14 in 10.0 mi Calm Calm - N/A   Clear
2:35 AM 35.6 °F 32.0 °F 87% 30.13 in 10.0 mi Calm Calm - N/A   Clear
2:55 AM 35.6 °F 35.6 °F 100% 30.13 in 10.0 mi Calm Calm - N/A   Clear
3:15 AM 35.6 °F 33.8 °F 93% 30.13 in 10.0 mi Calm Calm - N/A   Clear
3:35 AM 35.6 °F 35.6 °F 100% 30.13 in 10.0 mi Calm Calm - N/A   Clear
3:55 AM 33.8 °F 33.8 °F 100% 30.13 in 10.0 mi Calm Calm - N/A   Clear
4:15 AM 33.8 °F 33.8 °F 100% 30.14 in 10.0 mi Calm Calm - N/A   Clear
4:35 AM 33.8 °F 33.8 °F 100% 30.14 in 10.0 mi Calm Calm - N/A   Clear
4:55 AM 33.8 °F 33.8 °F 100% 30.14 in 10.0 mi Calm Calm - N/A   Clear
5:15 AM 33.8 °F 33.8 °F 100% 30.15 in 10.0 mi Calm Calm - N/A   Clear
5:35 AM 33.8 °F 33.8 °F 100% 30.15 in 10.0 mi Calm Calm - N/A   Clear
5:55 AM 33.8 °F 33.8 °F 100% 30.16 in 10.0 mi Calm Calm - N/A   Clear
6:15 AM 33.8 °F 33.8 °F 100% 30.16 in 10.0 mi Calm Calm - N/A   Clear
6:35 AM 32.0 °F 32.0 °F 100% 30.17 in 10.0 mi Calm Calm - N/A   Clear
6:55 AM 32.0 °F 32.0 °F 100% 30.19 in 10.0 mi Calm Calm - N/A   Clear
7:15 AM 32.0 °F 32.0 °F 100% 30.19 in 10.0 mi Calm Calm - N/A   Clear
7:35 AM 33.8 °F 33.8 °F 100% 30.20 in 10.0 mi Calm Calm - N/A   Clear
7:55 AM 35.6 °F 35.6 °F 100% 30.20 in 10.0 mi Calm Calm - N/A   Clear
8:15 AM 37.4 °F 37.4 °F 100% 30.20 in 10.0 mi Calm Calm - N/A   Clear
8:35 AM 41.0 °F 37.4 °F 87% 30.21 in 10.0 mi Calm Calm - N/A   Clear
8:55 AM 44.6 °F 37.4 °F 76% 30.21 in 10.0 mi Calm Calm - N/A   Clear
9:15 AM 50.0 °F 37.4 °F 62% 30.20 in 10.0 mi Calm Calm - N/A   Clear
9:35 AM 53.6 °F 37.4 °F 54% 30.20 in 10.0 mi South 3.5 mph - N/A   Clear
9:55 AM 59.0 °F 33.8 °F 39% 30.20 in 10.0 mi SW 6.9 mph - N/A   Clear
10:15 AM 60.8 °F 32.0 °F 34% 30.20 in 10.0 mi SW 5.8 mph - N/A   Clear
10:35 AM 62.6 °F 32.0 °F 32% 30.20 in 10.0 mi WSW 10.4 mph - N/A   Clear
10:55 AM 62.6 °F 30.2 °F 30% 30.20 in 10.0 mi WSW 11.5 mph 17.3 mph N/A   Clear
11:15 AM 64.4 °F 32.0 °F 30% 30.19 in 10.0 mi SW 8.1 mph - N/A   Clear
11:35 AM 64.4 °F 30.2 °F 28% 30.19 in 10.0 mi WSW 8.1 mph - N/A   Clear
11:55 AM 68.0 °F 30.2 °F 24% 30.18 in 10.0 mi WSW 11.5 mph 16.1 mph N/A   Clear
12:15 PM 68.0 °F 30.2 °F 24% 30.17 in 10.0 mi WSW 11.5 mph 18.4 mph N/A   Clear
12:35 PM 68.0 °F 30.2 °F 24% 30.16 in 10.0 mi SW 10.4 mph - N/A   Clear
12:55 PM 69.8 °F 30.2 °F 23% 30.14 in 10.0 mi SSW 10.4 mph 17.3 mph N/A   Clear
1:15 PM 69.8 °F 30.2 °F 23% 30.13 in 10.0 mi SSW 9.2 mph 16.1 mph N/A   Clear
1:35 PM 71.6 °F 30.2 °F 22% 30.11 in 10.0 mi South 9.2 mph 17.3 mph N/A   Clear
1:55 PM 71.6 °F 30.2 °F 22% 30.10 in 10.0 mi SSE 9.2 mph - N/A   Clear
2:15 PM 73.4 °F 30.2 °F 20% 30.09 in 10.0 mi South 13.8 mph 18.4 mph N/A   Clear
2:55 PM 73.4 °F 32.0 °F 22% 30.05 in 10.0 mi South 9.2 mph - N/A   Clear
3:15 PM 77.0 °F 33.8 °F 21% 30.05 in 10.0 mi South 13.8 mph - N/A   Clear
3:35 PM 75.2 °F 33.8 °F 22% 30.03 in 10.0 mi South 15.0 mph 19.6 mph N/A   Clear
3:55 PM 75.2 °F 33.8 °F 22% 30.02 in 10.0 mi SSW 16.1 mph 23.0 mph N/A   Clear
4:15 PM 77.0 °F 33.8 °F 21% 30.00 in 10.0 mi SSW 17.3 mph - N/A   Clear
4:35 PM 77.0 °F 33.8 °F 21% 29.99 in 10.0 mi South 13.8 mph 21.9 mph N/A   Clear
4:55 PM 77.0 °F 35.6 °F 22% 29.98 in 10.0 mi South 13.8 mph 18.4 mph N/A   Clear
5:15 PM 77.0 °F 35.6 °F 22% 29.98 in 10.0 mi SSW 12.7 mph 23.0 mph N/A   Clear
5:35 PM 75.2 °F 33.8 °F 22% 29.97 in 10.0 mi SSW 17.3 mph - N/A   Clear
5:55 PM 75.2 °F 35.6 °F 24% 29.97 in 10.0 mi South 16.1 mph 25.3 mph N/A   Clear
6:15 PM 73.4 °F 35.6 °F 25% 29.96 in 10.0 mi SSW 11.5 mph 15.0 mph N/A   Clear
6:35 PM 73.4 °F 35.6 °F 25% 29.96 in 10.0 mi South 16.1 mph 23.0 mph N/A   Clear
6:55 PM 71.6 °F 35.6 °F 27% 29.96 in 10.0 mi South 13.8 mph 17.3 mph N/A   Clear
7:15 PM 71.6 °F 35.6 °F 27% 29.95 in 10.0 mi South 13.8 mph - N/A   Clear
7:35 PM 69.8 °F 35.6 °F 28% 29.95 in 10.0 mi South 10.4 mph - N/A   Clear
7:55 PM 68.0 °F 35.6 °F 30% 29.94 in 10.0 mi South 6.9 mph - N/A   Clear
8:15 PM 66.2 °F 35.6 °F 32% 29.95 in 10.0 mi South 6.9 mph - N/A   Clear
8:35 PM 64.4 °F 35.6 °F 34% 29.95 in 10.0 mi SSE 4.6 mph - N/A   Clear
8:55 PM 64.4 °F 35.6 °F 34% 29.95 in 10.0 mi SSE 5.8 mph - N/A   Clear
9:15 PM 64.4 °F 35.6 °F 34% 29.96 in 10.0 mi South 5.8 mph - N/A   Clear
9:35 PM 62.6 °F 35.6 °F 37% 29.96 in 10.0 mi South 8.1 mph - N/A   Clear
9:55 PM 64.4 °F 35.6 °F 34% 29.95 in 10.0 mi South 8.1 mph - N/A   Clear
10:15 PM 62.6 °F 37.4 °F 39% 29.96 in 10.0 mi South 6.9 mph - N/A   Clear
10:35 PM 64.4 °F 37.4 °F 37% 29.95 in 10.0 mi South 10.4 mph 16.1 mph N/A   Clear
10:55 PM 64.4 °F 37.4 °F 37% 29.94 in 10.0 mi South 10.4 mph - N/A   Clear
11:15 PM 62.6 °F 39.2 °F 42% 29.93 in 10.0 mi South 8.1 mph - N/A   Clear
11:35 PM 64.4 °F 41.0 °F 42% 29.93 in 10.0 mi South 9.2 mph - N/A   Clear
11:55 PM 64.4 °F 39.2 °F 40% 29.93 in 10.0 mi South 10.4 mph 18.4 mph N/A   Clear